Weather History for Saranac Lake, NY

Change the Weather History Date:

Monday, April 29, 2013

  Actual Average Record
Temperature  
Mean Temperature 48 °F 44 °F  
Max Temperature 59 °F 57 °F 81 °F (1962)
Min Temperature 36 °F 31 °F 15 °F (2001)
Degree Days  
Heating Degree Days 17 21  
Month to date heating degree days 824 789  
Since 1 July heating degree days 8342 8751  
Cooling Degree Days 0 0  
Month to date cooling degree days 0 0  
Year to date cooling degree days 0 0  
Moisture  
Dew Point 39 °F    
Average Humidity 70    
Maximum Humidity 92    
Minimum Humidity 47    
Precipitation  
Precipitation 0.00 in 0.11 in 0.43 in (2014)
Month to date precipitation 2.51 2.77  
Year to date precipitation 5.25 8.79  
Sea Level Pressure  
Sea Level Pressure 30.13 in    
Wind  
Wind Speed 8 mph (South)    
Max Wind Speed 21 mph    
Max Gust Speed 26 mph    
Visibility 10 miles    
Events      
T = Trace of Precipitation, MM = Missing Value Source: NWS Daily Summary

Daily Weather History Graph

Daily Weather History Graph

Search for Another Location

Airport:

Trip Planner

Search our weather history database for the weather conditions in past years. The results will help you decide how hot, cold, wet, or windy it might be!

Date:

Astronomy

Apr. 29, 2013 Rise Set
Actual Time 5:50 AM EDT 7:58 PM EDT
Civil Twilight 5:18 AM EDT 8:30 PM EDT
Nautical Twilight 4:39 AM EDT 9:10 PM EDT
Astronomical Twilight 3:56 AM EDT 9:53 PM EDT
Moon No Moon Rise 9:04 AM EDT (4/29)
Length of Visible Light 15h 12m
Length of Day
14h 08m
Waning Gibbous, 80% of the Moon is Illuminated
Apr 29
Waning Gibbous
May 2
Last Quarter
May 9
New
May 18
First Quarter
May 25
Full

Hourly Weather History & Observations

Time (EDT) Temp. Dew Point Humidity Pressure Visibility Wind Dir Wind Speed Gust Speed Precip Events Conditions
12:51 AM 39.9 °F 35.1 °F 83% 30.12 in 10.0 mi Calm Calm - N/A   Clear
1:51 AM 41.0 °F 35.1 °F 79% 30.12 in 10.0 mi Calm Calm - N/A   Clear
2:51 AM 37.9 °F 34.0 °F 86% 30.11 in 10.0 mi Calm Calm - N/A   Clear
3:51 AM 36.0 °F 33.1 °F 89% 30.12 in 10.0 mi Calm Calm - N/A   Clear
4:51 AM 39.0 °F 35.1 °F 86% 30.12 in 10.0 mi Calm Calm - N/A   Scattered Clouds
5:51 AM 41.0 °F 36.0 °F 82% 30.12 in 10.0 mi Calm Calm - N/A   Overcast
6:51 AM 50.0 °F 37.9 °F 63% 30.13 in 10.0 mi SW 6.9 mph - N/A   Overcast
7:51 AM 51.1 °F 37.9 °F 61% 30.15 in 10.0 mi South 4.6 mph - N/A   Overcast
8:51 AM 54.0 °F 39.0 °F 57% 30.14 in 10.0 mi South 18.4 mph - N/A   Partly Cloudy
9:51 AM 57.0 °F 39.0 °F 51% 30.13 in 10.0 mi SSW 12.7 mph 18.4 mph N/A   Clear
10:51 AM 57.0 °F 37.9 °F 49% 30.13 in 10.0 mi South 12.7 mph - N/A   Mostly Cloudy
11:51 AM 57.0 °F 39.0 °F 51% 30.13 in 10.0 mi SSW 13.8 mph 23.0 mph N/A   Overcast
12:51 PM 55.9 °F 39.0 °F 53% 30.13 in 10.0 mi SSW 11.5 mph - N/A   Overcast
1:51 PM 55.0 °F 39.9 °F 57% 30.14 in 10.0 mi SSW 12.7 mph - N/A   Overcast
2:51 PM 55.0 °F 41.0 °F 59% 30.14 in 10.0 mi SSW 11.5 mph - N/A   Overcast
3:51 PM 53.1 °F 42.1 °F 66% 30.14 in 10.0 mi South 9.2 mph - N/A   Overcast
4:13 PM 53.6 °F 42.8 °F 67% 30.11 in 10.0 mi South 9.2 mph - N/A   Overcast
4:51 PM 52.0 °F 43.0 °F 71% 30.14 in 10.0 mi SSE 11.5 mph - N/A   Overcast
5:51 PM 52.0 °F 42.1 °F 69% 30.14 in 10.0 mi SSE 9.2 mph - N/A   Overcast
6:32 PM 51.8 °F 42.8 °F 71% 30.11 in 10.0 mi South 9.2 mph - N/A   Overcast
6:51 PM 52.0 °F 42.1 °F 69% 30.12 in 10.0 mi South 13.8 mph 17.3 mph N/A   Overcast
7:51 PM 51.1 °F 41.0 °F 68% 30.13 in 10.0 mi South 10.4 mph - N/A   Overcast
8:35 PM 51.8 °F 41.0 °F 67% 30.12 in 10.0 mi South 8.1 mph - N/A   Overcast
9:51 PM 50.0 °F 41.0 °F 71% 30.14 in 10.0 mi South 5.8 mph - N/A   Overcast
10:39 PM 50.0 °F 42.8 °F 76% 30.14 in 9.0 mi South 4.6 mph - N/A   Overcast
10:51 PM 50.0 °F 42.1 °F 74% 30.15 in 10.0 mi South 3.5 mph - N/A   Overcast
11:51 PM 48.9 °F 43.0 °F 80% 30.15 in 10.0 mi SSE 3.5 mph - N/A   Overcast